Time,TemperatureF,DewpointF,PressureIn,WindDirection,WindDirectionDegrees,WindSpeedMPH,WindSpeedGustMPH,Humidity,HourlyPrecipIn,Conditions,Clouds,dailyrainin,SolarRadiationWatts/m^2,SoftwareType,DateUTC
2013-04-17 00:02:00,32.0,12.0,-100.00,North,1,2.0,10.0,42,0.00,,,0.00,0.000000,,2013-04-17 06:02:00,
2013-04-17 00:12:00,32.0,12.0,-100.00,North,1,2.0,10.0,42,0.00,,,0.00,0.000000,,2013-04-17 06:12:00,
2013-04-17 00:22:00,32.0,12.0,-100.00,North,1,2.0,10.0,42,0.00,,,0.00,0.000000,,2013-04-17 06:22:00,
2013-04-17 00:32:00,32.0,12.0,-100.00,North,1,2.0,10.0,42,0.00,,,0.00,0.000000,,2013-04-17 06:32:00,
2013-04-17 00:42:00,31.0,11.0,-100.00,NNW,339,1.0,9.0,43,0.00,,,0.00,0.000000,,2013-04-17 06:42:00,
2013-04-17 01:02:00,31.0,11.0,-100.00,NNW,339,1.0,9.0,43,0.00,,,0.00,0.000000,,2013-04-17 07:02:00,
2013-04-17 01:12:00,31.0,11.0,-100.00,NNW,339,1.0,9.0,43,0.00,,,0.00,0.000000,,2013-04-17 07:12:00,
2013-04-17 01:22:00,31.0,11.0,-100.00,NNW,339,1.0,9.0,43,0.00,,,0.00,0.000000,,2013-04-17 07:22:00,
2013-04-17 01:32:00,31.0,11.0,-100.00,NNW,339,1.0,9.0,43,0.00,,,0.00,0.000000,,2013-04-17 07:32:00,
2013-04-17 01:42:00,31.0,11.0,-100.00,North,353,1.0,9.0,43,0.00,,,0.00,0.000000,,2013-04-17 07:42:00,
2013-04-17 02:02:00,31.0,11.0,-100.00,North,353,1.0,9.0,43,0.00,,,0.00,0.000000,,2013-04-17 08:02:00,
2013-04-17 02:12:00,31.0,11.0,-100.00,North,353,1.0,9.0,43,0.00,,,0.00,0.000000,,2013-04-17 08:12:00,
2013-04-17 02:22:00,31.0,11.0,-100.00,North,353,1.0,9.0,43,0.00,,,0.00,0.000000,,2013-04-17 08:22:00,
2013-04-17 02:32:00,31.0,11.0,-100.00,North,353,1.0,9.0,43,0.00,,,0.00,0.000000,,2013-04-17 08:32:00,
2013-04-17 02:42:00,30.0,11.0,-100.00,NNW,328,3.0,9.0,45,0.00,,,0.00,0.000000,,2013-04-17 08:42:00,
2013-04-17 03:02:00,30.0,11.0,-100.00,NNW,328,3.0,9.0,45,0.00,,,0.00,0.000000,,2013-04-17 09:02:00,
2013-04-17 03:12:00,30.0,11.0,-100.00,NNW,328,3.0,9.0,45,0.00,,,0.00,0.000000,,2013-04-17 09:12:00,
2013-04-17 03:22:00,30.0,11.0,-100.00,NNW,328,3.0,9.0,45,0.00,,,0.00,0.000000,,2013-04-17 09:22:00,
2013-04-17 03:32:00,30.0,11.0,-100.00,NNW,328,3.0,9.0,45,0.00,,,0.00,0.000000,,2013-04-17 09:32:00,
2013-04-17 03:42:00,29.0,11.0,-100.00,East,82,1.0,12.0,47,0.00,,,0.00,0.000000,,2013-04-17 09:42:00,
2013-04-17 04:02:00,29.0,11.0,-100.00,East,82,1.0,12.0,47,0.00,,,0.00,0.000000,,2013-04-17 10:02:00,
2013-04-17 04:12:00,29.0,11.0,-100.00,East,82,1.0,12.0,47,0.00,,,0.00,0.000000,,2013-04-17 10:12:00,
2013-04-17 04:23:00,29.0,11.0,-100.00,East,82,1.0,12.0,47,0.00,,,0.00,0.000000,,2013-04-17 10:23:00,
2013-04-17 04:32:00,29.0,11.0,-100.00,East,82,1.0,12.0,47,0.00,,,0.00,0.000000,,2013-04-17 10:32:00,
2013-04-17 04:42:00,28.0,12.0,-100.00,NNW,347,1.0,5.0,50,0.00,,,0.00,0.000000,,2013-04-17 10:42:00,
2013-04-17 05:02:00,28.0,12.0,-100.00,NNW,347,1.0,5.0,50,0.00,,,0.00,0.000000,,2013-04-17 11:02:00,
2013-04-17 05:12:00,28.0,12.0,-100.00,NNW,347,1.0,5.0,50,0.00,,,0.00,0.000000,,2013-04-17 11:12:00,
2013-04-17 05:22:00,28.0,12.0,-100.00,NNW,347,1.0,5.0,50,0.00,,,0.00,0.000000,,2013-04-17 11:22:00,
2013-04-17 05:32:00,28.0,12.0,-100.00,NNW,347,1.0,5.0,50,0.00,,,0.00,0.000000,,2013-04-17 11:32:00,
2013-04-17 05:42:00,28.0,13.0,-100.00,NNW,342,1.0,6.0,52,0.00,,,0.00,0.000000,,2013-04-17 11:42:00,
2013-04-17 06:02:00,28.0,13.0,-100.00,NNW,342,1.0,6.0,52,0.00,,,0.00,0.000000,,2013-04-17 12:02:00,
2013-04-17 06:12:00,28.0,13.0,-100.00,NNW,342,1.0,6.0,52,0.00,,,0.00,0.000000,,2013-04-17 12:12:00,
2013-04-17 06:22:00,28.0,13.0,-100.00,NNW,342,1.0,6.0,52,0.00,,,0.00,0.000000,,2013-04-17 12:22:00,
2013-04-17 06:32:00,28.0,13.0,-100.00,NNW,342,1.0,6.0,52,0.00,,,0.00,0.000000,,2013-04-17 12:32:00,
2013-04-17 06:42:00,28.0,14.0,-100.00,SSE,151,1.0,6.0,54,0.00,,,0.00,0.000000,,2013-04-17 12:42:00,
2013-04-17 07:02:00,28.0,14.0,-100.00,SSE,151,1.0,6.0,54,0.00,,,0.00,0.000000,,2013-04-17 13:02:00,
2013-04-17 07:12:00,28.0,14.0,-100.00,SSE,151,1.0,6.0,54,0.00,,,0.00,0.000000,,2013-04-17 13:12:00,
2013-04-17 07:22:00,28.0,14.0,-100.00,SSE,151,1.0,6.0,54,0.00,,,0.00,0.000000,,2013-04-17 13:22:00,
2013-04-17 07:32:00,28.0,14.0,-100.00,SSE,151,1.0,6.0,54,0.00,,,0.00,0.000000,,2013-04-17 13:32:00,
2013-04-17 07:42:00,29.0,14.0,-100.00,West,274,2.0,7.0,52,0.00,,,0.00,15.000000,,2013-04-17 13:42:00,
2013-04-17 08:02:00,29.0,14.0,-100.00,West,274,2.0,7.0,52,0.00,,,0.00,15.000000,,2013-04-17 14:02:00,
2013-04-17 08:12:00,29.0,14.0,-100.00,West,274,2.0,7.0,52,0.00,,,0.00,15.000000,,2013-04-17 14:12:00,
2013-04-17 08:22:00,29.0,14.0,-100.00,West,274,2.0,7.0,52,0.00,,,0.00,15.000000,,2013-04-17 14:22:00,
2013-04-17 08:32:00,29.0,14.0,-100.00,West,274,2.0,7.0,52,0.00,,,0.00,15.000000,,2013-04-17 14:32:00,
2013-04-17 08:42:00,33.0,14.0,-100.00,WNW,291,2.0,7.0,45,0.00,,,0.00,154.000000,,2013-04-17 14:42:00,
2013-04-17 09:02:00,33.0,14.0,-100.00,WNW,291,2.0,7.0,45,0.00,,,0.00,154.000000,,2013-04-17 15:02:00,
2013-04-17 09:12:00,33.0,14.0,-100.00,WNW,291,2.0,7.0,45,0.00,,,0.00,154.000000,,2013-04-17 15:12:00,
2013-04-17 09:22:00,33.0,14.0,-100.00,WNW,291,2.0,7.0,45,0.00,,,0.00,154.000000,,2013-04-17 15:22:00,
2013-04-17 09:33:00,33.0,14.0,-100.00,WNW,291,2.0,7.0,45,0.00,,,0.00,154.000000,,2013-04-17 15:33:00,
2013-04-17 09:42:00,36.0,13.0,-100.00,NW,320,4.0,13.0,38,0.00,,,0.00,340.000000,,2013-04-17 15:42:00,
2013-04-17 10:03:00,36.0,13.0,-100.00,NW,320,4.0,13.0,38,0.00,,,0.00,340.000000,,2013-04-17 16:03:00,
2013-04-17 10:12:00,36.0,13.0,-100.00,NW,320,4.0,13.0,38,0.00,,,0.00,340.000000,,2013-04-17 16:12:00,
2013-04-17 10:22:00,36.0,13.0,-100.00,NW,320,4.0,13.0,38,0.00,,,0.00,340.000000,,2013-04-17 16:22:00,
2013-04-17 10:32:00,36.0,13.0,-100.00,NW,320,4.0,13.0,38,0.00,,,0.00,340.000000,,2013-04-17 16:32:00,
2013-04-17 10:42:00,40.0,9.0,-100.00,NNE,30,5.0,19.0,27,0.00,,,0.00,526.000000,,2013-04-17 16:42:00,
2013-04-17 11:02:00,40.0,9.0,-100.00,NNE,30,5.0,19.0,27,0.00,,,0.00,526.000000,,2013-04-17 17:02:00,
2013-04-17 11:12:00,40.0,9.0,-100.00,NNE,30,5.0,19.0,27,0.00,,,0.00,526.000000,,2013-04-17 17:12:00,
2013-04-17 11:22:00,40.0,9.0,-100.00,NNE,30,5.0,19.0,27,0.00,,,0.00,526.000000,,2013-04-17 17:22:00,
2013-04-17 11:33:00,40.0,9.0,-100.00,NNE,30,5.0,19.0,27,0.00,,,0.00,526.000000,,2013-04-17 17:33:00,
2013-04-17 11:42:00,42.0,9.0,-100.00,North,11,6.0,21.0,25,0.00,,,0.00,687.000000,,2013-04-17 17:42:00,
2013-04-17 12:02:00,42.0,9.0,-100.00,North,11,6.0,21.0,25,0.00,,,0.00,687.000000,,2013-04-17 18:02:00,
2013-04-17 12:12:00,42.0,9.0,-100.00,North,11,6.0,21.0,25,0.00,,,0.00,687.000000,,2013-04-17 18:12:00,
2013-04-17 12:22:00,42.0,9.0,-100.00,North,11,6.0,21.0,25,0.00,,,0.00,687.000000,,2013-04-17 18:22:00,
2013-04-17 12:32:00,42.0,9.0,-100.00,North,11,6.0,21.0,25,0.00,,,0.00,687.000000,,2013-04-17 18:32:00,
2013-04-17 12:42:00,42.0,9.0,-100.00,NNW,329,9.0,25.0,25,0.00,,,0.00,808.000000,,2013-04-17 18:42:00,
2013-04-17 13:02:00,42.0,9.0,-100.00,NNW,329,9.0,25.0,25,0.00,,,0.00,808.000000,,2013-04-17 19:02:00,
2013-04-17 13:12:00,42.0,9.0,-100.00,NNW,329,9.0,25.0,25,0.00,,,0.00,808.000000,,2013-04-17 19:12:00,
2013-04-17 13:22:00,42.0,9.0,-100.00,NNW,329,9.0,25.0,25,0.00,,,0.00,808.000000,,2013-04-17 19:22:00,
2013-04-17 13:32:00,42.0,9.0,-100.00,NNW,329,9.0,25.0,25,0.00,,,0.00,808.000000,,2013-04-17 19:32:00,
2013-04-17 13:42:00,45.0,9.0,-100.00,NW,314,8.0,23.0,23,0.00,,,0.00,881.000000,,2013-04-17 19:42:00,
2013-04-17 14:02:00,45.0,9.0,-100.00,NW,314,8.0,23.0,23,0.00,,,0.00,881.000000,,2013-04-17 20:02:00,
2013-04-17 14:12:00,45.0,9.0,-100.00,NW,314,8.0,23.0,23,0.00,,,0.00,881.000000,,2013-04-17 20:12:00,
2013-04-17 14:22:00,45.0,9.0,-100.00,NW,314,8.0,23.0,23,0.00,,,0.00,881.000000,,2013-04-17 20:22:00,
2013-04-17 14:32:00,45.0,9.0,-100.00,NW,314,8.0,23.0,23,0.00,,,0.00,881.000000,,2013-04-17 20:32:00,
2013-04-17 14:42:00,46.0,7.0,-100.00,NNW,335,7.0,23.0,20,0.00,,,0.00,898.000000,,2013-04-17 20:42:00,
2013-04-17 15:02:00,46.0,7.0,-100.00,NNW,335,7.0,23.0,20,0.00,,,0.00,898.000000,,2013-04-17 21:02:00,
2013-04-17 15:12:00,46.0,7.0,-100.00,NNW,335,7.0,23.0,20,0.00,,,0.00,898.000000,,2013-04-17 21:12:00,
2013-04-17 15:22:00,46.0,7.0,-100.00,NNW,335,7.0,23.0,20,0.00,,,0.00,898.000000,,2013-04-17 21:22:00,
2013-04-17 15:32:00,46.0,7.0,-100.00,NNW,335,7.0,23.0,20,0.00,,,0.00,898.000000,,2013-04-17 21:32:00,
2013-04-17 15:42:00,47.0,9.0,-100.00,NW,321,10.0,25.0,21,0.00,,,0.00,857.000000,,2013-04-17 21:42:00,
2013-04-17 16:02:00,47.0,9.0,-100.00,NW,321,10.0,25.0,21,0.00,,,0.00,857.000000,,2013-04-17 22:02:00,
2013-04-17 16:12:00,47.0,9.0,-100.00,NW,321,10.0,25.0,21,0.00,,,0.00,857.000000,,2013-04-17 22:12:00,
2013-04-17 16:22:00,47.0,9.0,-100.00,NW,321,10.0,25.0,21,0.00,,,0.00,857.000000,,2013-04-17 22:22:00,
2013-04-17 16:33:00,47.0,9.0,-100.00,NW,321,10.0,25.0,21,0.00,,,0.00,857.000000,,2013-04-17 22:33:00,
2013-04-17 16:42:00,48.0,7.0,-100.00,NNW,332,12.0,31.0,18,0.00,,,0.00,760.000000,,2013-04-17 22:42:00,
2013-04-17 17:02:00,48.0,7.0,-100.00,NNW,332,12.0,31.0,18,0.00,,,0.00,760.000000,,2013-04-17 23:02:00,
2013-04-17 17:12:00,48.0,7.0,-100.00,NNW,332,12.0,31.0,18,0.00,,,0.00,760.000000,,2013-04-17 23:12:00,
2013-04-17 17:22:00,48.0,7.0,-100.00,NNW,332,12.0,31.0,18,0.00,,,0.00,760.000000,,2013-04-17 23:22:00,
2013-04-17 17:32:00,48.0,7.0,-100.00,NNW,332,12.0,31.0,18,0.00,,,0.00,760.000000,,2013-04-17 23:32:00,
2013-04-17 17:42:00,48.0,3.0,-100.00,NNW,330,6.0,29.0,15,0.00,,,0.00,627.000000,,2013-04-17 23:42:00,
2013-04-17 18:02:00,48.0,3.0,-100.00,NNW,330,6.0,29.0,15,0.00,,,0.00,627.000000,,2013-04-18 00:02:00,
2013-04-17 18:12:00,48.0,3.0,-100.00,NNW,330,6.0,29.0,15,0.00,,,0.00,627.000000,,2013-04-18 00:12:00,
2013-04-17 18:22:00,48.0,3.0,-100.00,NNW,330,6.0,29.0,15,0.00,,,0.00,627.000000,,2013-04-18 00:22:00,
2013-04-17 18:32:00,48.0,3.0,-100.00,NNW,330,6.0,29.0,15,0.00,,,0.00,627.000000,,2013-04-18 00:32:00,
2013-04-17 18:42:00,47.0,3.0,-100.00,NE,51,6.0,20.0,16,0.00,,,0.00,447.000000,,2013-04-18 00:42:00,
2013-04-17 19:02:00,47.0,3.0,-100.00,NE,51,6.0,20.0,16,0.00,,,0.00,447.000000,,2013-04-18 01:02:00,
2013-04-17 19:12:00,47.0,3.0,-100.00,NE,51,6.0,20.0,16,0.00,,,0.00,447.000000,,2013-04-18 01:12:00,
2013-04-17 19:22:00,47.0,3.0,-100.00,NE,51,6.0,20.0,16,0.00,,,0.00,447.000000,,2013-04-18 01:22:00,
2013-04-17 19:32:00,47.0,3.0,-100.00,NE,51,6.0,20.0,16,0.00,,,0.00,447.000000,,2013-04-18 01:32:00,
2013-04-17 19:42:00,45.0,5.0,-100.00,East,80,4.0,19.0,19,0.00,,,0.00,248.000000,,2013-04-18 01:42:00,
2013-04-17 20:02:00,45.0,5.0,-100.00,East,80,4.0,19.0,19,0.00,,,0.00,248.000000,,2013-04-18 02:02:00,
2013-04-17 20:12:00,45.0,5.0,-100.00,East,80,4.0,19.0,19,0.00,,,0.00,248.000000,,2013-04-18 02:12:00,
2013-04-17 20:22:00,45.0,5.0,-100.00,East,80,4.0,19.0,19,0.00,,,0.00,248.000000,,2013-04-18 02:22:00,
2013-04-17 20:32:00,45.0,5.0,-100.00,East,80,4.0,19.0,19,0.00,,,0.00,248.000000,,2013-04-18 02:32:00,
2013-04-17 20:42:00,41.0,8.0,-100.00,West,268,2.0,10.0,25,0.00,,,0.00,57.000000,,2013-04-18 02:42:00,
2013-04-17 21:02:00,41.0,8.0,-100.00,West,268,2.0,10.0,25,0.00,,,0.00,57.000000,,2013-04-18 03:02:00,
2013-04-17 21:12:00,41.0,8.0,-100.00,West,268,2.0,10.0,25,0.00,,,0.00,57.000000,,2013-04-18 03:12:00,
2013-04-17 21:22:00,41.0,8.0,-100.00,West,268,2.0,10.0,25,0.00,,,0.00,57.000000,,2013-04-18 03:22:00,
2013-04-17 21:33:00,41.0,8.0,-100.00,West,268,2.0,10.0,25,0.00,,,0.00,57.000000,,2013-04-18 03:33:00,
2013-04-17 21:42:00,38.0,9.0,-100.00,NW,314,3.0,8.0,29,0.00,,,0.00,0.000000,,2013-04-18 03:42:00,
2013-04-17 22:03:00,38.0,9.0,-100.00,NW,314,3.0,8.0,29,0.00,,,0.00,0.000000,,2013-04-18 04:03:00,
2013-04-17 22:13:00,38.0,9.0,-100.00,NW,314,3.0,8.0,29,0.00,,,0.00,0.000000,,2013-04-18 04:13:00,
2013-04-17 22:23:00,38.0,9.0,-100.00,NW,314,3.0,8.0,29,0.00,,,0.00,0.000000,,2013-04-18 04:23:00,
2013-04-17 22:33:00,38.0,9.0,-100.00,NW,314,3.0,8.0,29,0.00,,,0.00,0.000000,,2013-04-18 04:33:00,
2013-04-17 22:42:00,37.0,10.0,-100.00,WSW,237,1.0,6.0,32,0.00,,,0.00,0.000000,,2013-04-18 04:42:00,
2013-04-17 23:02:00,37.0,10.0,-100.00,WSW,237,1.0,6.0,32,0.00,,,0.00,0.000000,,2013-04-18 05:02:00,
2013-04-17 23:12:00,37.0,10.0,-100.00,WSW,237,1.0,6.0,32,0.00,,,0.00,0.000000,,2013-04-18 05:12:00,
2013-04-17 23:22:00,37.0,10.0,-100.00,WSW,237,1.0,6.0,32,0.00,,,0.00,0.000000,,2013-04-18 05:22:00,
2013-04-17 23:32:00,37.0,10.0,-100.00,WSW,237,1.0,6.0,32,0.00,,,0.00,0.000000,,2013-04-18 05:32:00,
2013-04-17 23:42:00,35.0,9.0,-100.00,NW,313,1.0,5.0,33,0.00,,,0.00,0.000000,,2013-04-18 05:42:00,